Flag for U.S.A. Weather past 2 weeks in Stamford, Connecticut, U.S.A.

Now
51 °F

Clear.


Feels Like: 48 °F
Forecast: 50 / 72 °F
Wind: 8 mph from Northwest

Location: Westchester County Airport

Current Time: Sep 18, 2014 at 6:20:23 AM

Latest Report: Sep 18, 2014 at 5:56 AM


Visibility: 10 mi

Pressure: 29.97 "Hg

Humidity: 89%

Dew point: 48 °F

Location of StamfordLocation

Historic Weather in Stamford — Graph

°F

Stamford temperature yesterday

Maximum temperature yesterday: 70 °F (at 4:56 PM)
Minimum temperature yesterday: 49 °F (at 4:56 AM)
Average temperature yesterday: 59 °F

Past Weeks' High & Low Weather Summary

 TemperatureHumidityPressure
High89 °F (Sep 6, 3:56 PM)97% (Sep 5, 11:56 PM)30.32 "Hg (Sep 5, 11:56 PM)
Low49 °F (Sep 14, 3:56 AM)33% (Sep 7, 3:56 PM)29.80 "Hg (Sep 6, 3:56 PM)
Average66 °F71%30.09 "Hg
* Reported Sep 3 4:56 AM — Sep 18 4:56 AM, Stamford, Weather by CustomWeather, © 2014

Note: Actual official high and low records may vary slightly from our data, if they occured in-between our weather recording intervals... More about our weather records

Advertising

Stamford weather history for previous 24 hours

 ConditionsComfort  
Time TempWeatherWind HumidityBarometerVisibility
4:56 AM
Sep 18
50 °FClear.6 mph93%29.96 "Hg10 mi
3:56 AM51 °FClear.6 mph89%29.95 "Hg10 mi
2:56 AM52 °FClear.6 mph89%29.95 "Hg10 mi
1:56 AM52 °FClear.3 mph93%29.95 "Hg10 mi
12:56 AM52 °FClear.5 mph93%29.96 "Hg10 mi
11:56 PM
Sep 17
53 °FClear.No wind86%29.97 "Hg10 mi
10:56 PM54 °FClear.No wind83%29.98 "Hg10 mi
9:56 PM54 °FClear.No wind74%29.98 "Hg10 mi
8:56 PM56 °FClear.No wind75%29.98 "Hg10 mi
7:56 PM59 °FSunny.No wind67%29.98 "Hg10 mi
6:56 PM62 °FPassing clouds.No wind56%29.97 "Hg10 mi
5:56 PM67 °FPassing clouds.3 mph41%29.96 "Hg10 mi
4:56 PM70 °FPassing clouds.5 mph35%29.96 "Hg10 mi
3:56 PM69 °FScattered clouds.8 mph38%29.96 "Hg10 mi
2:56 PM69 °FScattered clouds.10 mph36%29.97 "Hg10 mi
1:56 PM68 °FScattered clouds.9 mph36%29.99 "Hg10 mi
12:56 PM67 °FScattered clouds.7 mph39%30.02 "Hg10 mi
11:56 AM66 °FScattered clouds.3 mph40%30.03 "Hg10 mi
10:56 AM66 °FScattered clouds.3 mph45%30.05 "Hg10 mi
9:56 AM63 °FSunny.6 mph50%30.06 "Hg10 mi
8:56 AM60 °FSunny.5 mph67%30.05 "Hg10 mi
7:56 AM54 °FSunny.7 mph86%30.05 "Hg10 mi
6:56 AM50 °FClear.8 mph89%30.04 "Hg10 mi
Weather by CustomWeather, © 2014

See weather overviewHow to use our weather pages